Change the Weather History Date:

Thursday, April 17, 2014

  Actual Average Record
Temperature  
Mean Temperature 52 °F 54 °F  
Max Temperature 66 °F 65 °F 87 °F (1967)
Min Temperature 37 °F 43 °F 30 °F (2001)
Degree Days  
Heating Degree Days 13 12  
Month to date heating degree days 237 241  
Since 1 July heating degree days 5834 5095  
Cooling Degree Days 0 0  
Month to date cooling degree days 3 3  
Year to date cooling degree days 3 4  
Moisture  
Dew Point 32 °F    
Average Humidity 49    
Maximum Humidity 66    
Minimum Humidity 31    
Precipitation  
Precipitation 0.00 in 0.13 in 1.13 in (1982)
Month to date precipitation 4.65 1.82  
Year to date precipitation 10.43 9.48  
Sea Level Pressure  
Sea Level Pressure 30.25 in    
Wind  
Wind Speed 8 mph (South)    
Max Wind Speed 21 mph    
Max Gust Speed 25 mph    
Visibility 10 miles    
Events      
T = Trace of Precipitation, MM = Missing Value Source: NWS Daily Summary

Daily Weather History Graph

Daily Weather History Graph

Search for Another Location

Airport or City:

Trip Planner

Search our weather history database for the weather conditions in past years. The results will help you decide how hot, cold, wet, or windy it might be!

Date:

Astronomy

Apr. 17, 2014 Rise Set
Actual Time 7:09 AM EDT 8:29 PM EDT
Civil Twilight 6:41 AM EDT 8:57 PM EDT
Nautical Twilight 6:07 AM EDT 9:30 PM EDT
Astronomical Twilight 5:32 AM EDT 10:05 PM EDT
Moon 11:13 PM EDT (4/17) 8:41 AM EDT (4/17)
Length of Visible Light 14h 15m
Length of Day
13h 19m
Waning Gibbous, 94% of the Moon is Illuminated
Apr 17
Waning Gibbous
Apr 22
Last Quarter
Apr 29
New
May 6
First Quarter
May 14
Full

Hourly Weather History & Observations

Time (EDT) Temp. Windchill Dew Point Humidity Pressure Visibility Wind Dir Wind Speed Gust Speed Precip Events Conditions
12:53 AM 43.0 °F 38.2 °F 26.1 °F 51% 30.20 in 10.0 mi SE 8.1 mph - N/A   Clear
1:53 AM 39.9 °F 36.7 °F 26.1 °F 58% 30.22 in 10.0 mi SE 4.6 mph - N/A   Clear
2:53 AM 39.0 °F 36.8 °F 25.0 °F 57% 30.22 in 10.0 mi SE 3.5 mph - N/A   Clear
3:53 AM 39.9 °F 37.8 °F 25.0 °F 55% 30.21 in 10.0 mi SE 3.5 mph - N/A   Clear
4:53 AM 37.9 °F 33.5 °F 26.1 °F 62% 30.21 in 10.0 mi SSE 5.8 mph - N/A   Clear
5:53 AM 39.0 °F 34.0 °F 26.1 °F 60% 30.22 in 10.0 mi South 6.9 mph - N/A   Clear
6:53 AM 37.9 °F 33.5 °F 26.1 °F 62% 30.23 in 10.0 mi South 5.8 mph - N/A   Clear
7:53 AM 39.0 °F 34.8 °F 28.0 °F 65% 30.25 in 10.0 mi SSE 5.8 mph - N/A   Clear
8:53 AM 46.9 °F - 30.0 °F 52% 30.27 in 10.0 mi South 6.9 mph - N/A   Clear
9:53 AM 52.0 °F - 30.9 °F 45% 30.28 in 10.0 mi South 12.7 mph - N/A   Clear
10:53 AM 55.0 °F - 32.0 °F 42% 30.29 in 10.0 mi SSW 10.4 mph - N/A   Clear
1:53 PM 64.0 °F - 34.0 °F 33% 30.27 in 10.0 mi SSW 20.7 mph - N/A   Clear
2:53 PM 64.9 °F - 37.9 °F 37% 30.27 in 10.0 mi South 17.3 mph - N/A   Clear
3:53 PM 64.0 °F - 36.0 °F 35% 30.26 in 10.0 mi South 8.1 mph 21.9 mph N/A   Clear
4:53 PM 64.9 °F - 35.1 °F 33% 30.24 in 10.0 mi South 10.4 mph - N/A   Clear
5:53 PM 64.9 °F - 35.1 °F 33% 30.25 in 10.0 mi SW 10.4 mph - N/A   Clear
6:53 PM 64.0 °F - 35.1 °F 34% 30.25 in 10.0 mi South 11.5 mph - N/A   Clear
7:53 PM 62.1 °F - 36.0 °F 38% 30.26 in 10.0 mi South 8.1 mph - N/A   Clear
8:53 PM 57.0 °F - 37.9 °F 49% 30.25 in 10.0 mi South 5.8 mph - N/A   Clear
9:53 PM 57.0 °F - 37.9 °F 49% 30.25 in 10.0 mi South 5.8 mph - N/A   Clear
10:53 PM 52.0 °F - 39.9 °F 63% 30.26 in 10.0 mi SSE 3.5 mph - N/A   Clear
11:53 PM 50.0 °F - 39.9 °F 68% 30.27 in 10.0 mi Calm Calm - N/A   Clear